| time (UTC) | temp F | wind direction | speed MPH | gust MPH | rain 1hr in | rain 24hr in | rain mn in | humidity % | barometer mb |
| 20260510080016 | 36 | 0.0 | 0.0 | 0.00 | 0.00 | 0.00 | 66 | 1016.7 | |
| 20260510075016 | 37 | 0.0 | 2.0 | 0.00 | 0.00 | 0.00 | 66 | 1016.6 | |
| 20260510074016 | 38 | 0.0 | 1.0 | 0.00 | 0.00 | 0.00 | 64 | 1016.5 | |
| 20260510073036 | 39 | 0.0 | 1.0 | 0.00 | 0.00 | 0.00 | 64 | 1016.6 | |
| 20260510072016 | 38 | 0.0 | 0.0 | 0.00 | 0.00 | 0.00 | 65 | 1016.5 | |
| 20260510071036 | 38 | 0.0 | 0.0 | 0.00 | 0.00 | 0.00 | 65 | 1016.5 | |
| 20260510070016 | 37 | 0.0 | 0.0 | 0.00 | 0.00 | 0.00 | 65 | 1016.4 | |
| 20260510065016 | 37 | 0.0 | 0.0 | 0.00 | 0.00 | 0.00 | 65 | 1016.3 | |
| 20260510064016 | 37 | 0.0 | 0.0 | 0.00 | 0.00 | 0.00 | 63 | 1016.4 | |
| 20260510063015 | 37 | 0.0 | 2.0 | 0.00 | 0.00 | 0.00 | 61 | 1016.4 | |
| 20260510062016 | 38 | 0.0 | 2.0 | 0.00 | 0.00 | 0.00 | 60 | 1016.3 | |
| 20260510061015 | 39 | 0.0 | 0.0 | 0.00 | 0.00 | 0.00 | 58 | 1016.2 | |
| 20260510060016 | 40 | 225 | 1.0 | 2.0 | 0.00 | 0.00 | 0.00 | 55 | 1016.2 |
| 20260510055016 | 42 | 225 | 2.0 | 2.0 | 0.00 | 0.00 | 0.00 | 50 | 1016.3 |
| 20260510054016 | 43 | 0.0 | 0.0 | 0.00 | 0.00 | 0.00 | 50 | 1016.3 | |
| 20260510053015 | 44 | 0.0 | 0.0 | 0.00 | 0.00 | 0.00 | 49 | 1016.4 | |
| 20260510052036 | 45 | 0 | 1.0 | 2.0 | 0.00 | 0.00 | 0.00 | 48 | 1016.3 |
| 20260510051015 | 46 | 0 | 2.0 | 2.0 | 0.00 | 0.00 | 0.00 | 46 | 1016.2 |
| 20260510050015 | 44 | 0 | 2.0 | 2.0 | 0.00 | 0.00 | 0.00 | 48 | 1016.2 |
| 20260510045016 | 45 | 338 | 2.0 | 3.0 | 0.00 | 0.00 | 0.00 | 47 | 1016.2 |
| 20260510044036 | 47 | 338 | 3.0 | 4.0 | 0.00 | 0.00 | 0.00 | 45 | 1016.1 |
| 20260510043016 | 48 | 338 | 3.0 | 4.0 | 0.00 | 0.00 | 0.00 | 43 | 1016.1 |
| 20260510042016 | 48 | 338 | 3.0 | 4.0 | 0.00 | 0.00 | 0.00 | 43 | 1016.0 |
| 20260510041016 | 47 | 338 | 3.0 | 3.0 | 0.00 | 0.00 | 0.00 | 45 | 1015.9 |
| 20260510040016 | 47 | 338 | 3.0 | 4.0 | 0.00 | 0.00 | 0.00 | 43 | 1015.8 |
| 20260510035016 | 48 | 338 | 3.0 | 4.0 | 0.00 | 0.00 | 0.00 | 42 | 1015.7 |
| 20260510034016 | 49 | 338 | 3.0 | 4.0 | 0.00 | 0.00 | 0.00 | 41 | 1015.6 |
| 20260510033036 | 49 | 338 | 3.0 | 4.0 | 0.00 | 0.00 | 0.00 | 40 | 1015.5 |
| 20260510032016 | 50 | 0 | 4.0 | 5.0 | 0.00 | 0.00 | 0.00 | 38 | 1015.4 |
| 20260510031036 | 51 | 338 | 5.0 | 7.0 | 0.00 | 0.00 | 0.00 | 37 | 1015.2 |
| 20260510030016 | 52 | 338 | 5.0 | 8.0 | 0.00 | 0.00 | 0.00 | 36 | 1015.2 |
| 20260510025016 | 52 | 338 | 5.0 | 9.0 | 0.00 | 0.00 | 0.00 | 37 | 1015.1 |
| 20260510024016 | 52 | 338 | 5.0 | 8.0 | 0.00 | 0.00 | 0.00 | 36 | 1014.7 |
| 20260510023016 | 53 | 338 | 6.0 | 9.0 | 0.00 | 0.00 | 0.00 | 35 | 1014.5 |
| 20260510022016 | 53 | 338 | 6.0 | 10.0 | 0.00 | 0.00 | 0.00 | 35 | 1014.4 |
| 20260510021016 | 53 | 338 | 7.0 | 11.0 | 0.00 | 0.00 | 0.00 | 34 | 1014.1 |
| 20260510020016 | 53 | 338 | 6.0 | 8.0 | 0.00 | 0.00 | 0.00 | 34 | 1013.9 |
| 20260510015016 | 54 | 0 | 5.0 | 8.0 | 0.00 | 0.00 | 0.00 | 34 | 1013.7 |
| 20260510014016 | 55 | 0 | 6.0 | 10.0 | 0.00 | 0.00 | 0.00 | 33 | 1013.5 |
| 20260510013016 | 55 | 0 | 6.0 | 8.0 | 0.00 | 0.00 | 0.00 | 33 | 1013.3 |
| 20260510012016 | 55 | 338 | 7.0 | 11.0 | 0.00 | 0.00 | 0.00 | 32 | 1013.3 |
| 20260510011036 | 56 | 0 | 7.0 | 11.0 | 0.00 | 0.00 | 0.00 | 31 | 1013.0 |
| 20260510010016 | 57 | 0 | 8.0 | 11.0 | 0.00 | 0.00 | 0.00 | 30 | 1012.9 |
| 20260510005016 | 57 | 0 | 9.0 | 14.0 | 0.00 | 0.00 | 0.00 | 29 | 1012.8 |
| 20260510004016 | 58 | 23 | 11.0 | 16.0 | 0.00 | 0.00 | 0.00 | 28 | 1012.6 |
| 20260510003016 | 58 | 338 | 11.0 | 16.0 | 0.00 | 0.00 | 0.00 | 28 | 1012.3 |
| 20260510002016 | 59 | 338 | 10.0 | 15.0 | 0.00 | 0.00 | 0.00 | 28 | 1012.4 |
| 20260510001016 | 59 | 0 | 12.0 | 18.0 | 0.00 | 0.00 | 0.00 | 27 | 1012.1 |
| 20260510000016 | 59 | 338 | 14.0 | 22.0 | 0.00 | 0.00 | 0.00 | 27 | 1011.9 |
| 20260509235016 | 60 | 0 | 12.0 | 16.0 | 0.00 | 0.00 | 0.00 | 27 | 1011.9 |
| 20260509234016 | 60 | 0 | 12.0 | 19.0 | 0.00 | 0.00 | 0.00 | 26 | 1011.7 |
| 20260509233016 | 60 | 0 | 11.0 | 17.0 | 0.00 | 0.00 | 0.00 | 27 | 1011.6 |
| 20260509232016 | 60 | 23 | 10.0 | 17.0 | 0.00 | 0.00 | 0.00 | 27 | 1011.4 |
| 20260509231016 | 61 | 23 | 11.0 | 16.0 | 0.00 | 0.00 | 0.00 | 26 | 1011.4 |
| 20260509230056 | 61 | 0 | 9.0 | 14.0 | 0.00 | 0.00 | 0.00 | 26 | 1011.3 |
| 20260509225015 | 61 | 0 | 10.0 | 15.0 | 0.00 | 0.00 | 0.00 | 27 | 1011.1 |
| 20260509224016 | 61 | 338 | 13.0 | 19.0 | 0.00 | 0.00 | 0.00 | 26 | 1011.0 |
| 20260509223015 | 61 | 338 | 12.0 | 18.0 | 0.00 | 0.00 | 0.00 | 27 | 1010.8 |
| 20260509222036 | 62 | 23 | 10.0 | 20.0 | 0.00 | 0.00 | 0.00 | 27 | 1010.8 |
| 20260509221016 | 61 | 338 | 13.0 | 17.0 | 0.00 | 0.00 | 0.00 | 26 | 1010.7 |
| 20260509220036 | 61 | 315 | 12.0 | 19.0 | 0.00 | 0.00 | 0.00 | 27 | 1010.6 |
| 20260509215036 | 61 | 0 | 14.0 | 21.0 | 0.00 | 0.00 | 0.00 | 25 | 1010.6 |
| 20260509214016 | 61 | 338 | 13.0 | 20.0 | 0.00 | 0.00 | 0.00 | 25 | 1010.4 |
| 20260509213015 | 61 | 338 | 14.0 | 20.0 | 0.00 | 0.00 | 0.00 | 25 | 1010.5 |
| 20260509212035 | 61 | 0 | 12.0 | 20.0 | 0.00 | 0.00 | 0.00 | 26 | 1010.3 |
| 20260509211035 | 62 | 338 | 12.0 | 18.0 | 0.00 | 0.00 | 0.00 | 26 | 1010.2 |
| 20260509210015 | 61 | 0 | 16.0 | 22.0 | 0.00 | 0.00 | 0.00 | 25 | 1010.0 |
| 20260509205035 | 62 | 0 | 15.0 | 24.0 | 0.00 | 0.00 | 0.00 | 24 | 1009.9 |
| 20260509204035 | 62 | 0 | 12.0 | 22.0 | 0.00 | 0.00 | 0.00 | 25 | 1009.8 |
| 20260509203015 | 62 | 338 | 12.0 | 21.0 | 0.00 | 0.00 | 0.00 | 26 | 1009.7 |
| 20260509202015 | 61 | 23 | 14.0 | 22.0 | 0.00 | 0.00 | 0.00 | 27 | 1009.6 |
| 20260509201015 | 61 | 338 | 12.0 | 18.0 | 0.00 | 0.00 | 0.00 | 27 | 1009.6 |
| 20260509200035 | 61 | 338 | 15.0 | 22.0 | 0.00 | 0.00 | 0.00 | 26 | 1009.5 |
| 20260509195015 | 62 | 338 | 17.0 | 25.0 | 0.00 | 0.00 | 0.00 | 25 | 1009.5 |
| 20260509194015 | 61 | 23 | 16.0 | 29.0 | 0.00 | 0.00 | 0.00 | 26 | 1009.5 |
| 20260509193015 | 61 | 0 | 15.0 | 21.0 | 0.00 | 0.00 | 0.00 | 25 | 1009.5 |
| 20260509192015 | 61 | 0 | 15.0 | 24.0 | 0.00 | 0.00 | 0.00 | 26 | 1009.4 |
| 20260509191015 | 61 | 23 | 14.0 | 21.0 | 0.00 | 0.00 | 0.00 | 28 | 1009.2 |
| 20260509190016 | 61 | 338 | 14.0 | 20.0 | 0.00 | 0.00 | 0.00 | 28 | 1009.1 |
| 20260509185017 | 61 | 338 | 15.0 | 22.0 | 0.00 | 0.00 | 0.00 | 26 | 1009.1 |
| 20260509184017 | 61 | 338 | 17.0 | 22.0 | 0.00 | 0.00 | 0.00 | 29 | 1009.1 |
| 20260509183017 | 60 | 338 | 14.0 | 22.0 | 0.00 | 0.00 | 0.00 | 30 | 1008.9 |
| 20260509182037 | 61 | 338 | 14.0 | 20.0 | 0.00 | 0.00 | 0.00 | 29 | 1008.9 |
| 20260509181037 | 60 | 338 | 13.0 | 19.0 | 0.00 | 0.00 | 0.00 | 31 | 1008.9 |
| 20260509180017 | 60 | 338 | 15.0 | 24.0 | 0.00 | 0.00 | 0.00 | 30 | 1008.8 |
| 20260509175037 | 60 | 23 | 15.0 | 22.0 | 0.00 | 0.00 | 0.00 | 29 | 1008.6 |
| 20260509174037 | 60 | 338 | 15.0 | 22.0 | 0.00 | 0.00 | 0.00 | 30 | 1008.7 |
| 20260509173037 | 60 | 23 | 17.0 | 24.0 | 0.00 | 0.00 | 0.00 | 31 | 1008.6 |
| 20260509172017 | 61 | 338 | 13.0 | 22.0 | 0.00 | 0.00 | 0.00 | 31 | 1008.6 |
| 20260509171057 | 59 | 338 | 14.0 | 20.0 | 0.00 | 0.00 | 0.00 | 33 | 1008.6 |
| 20260509170017 | 60 | 0 | 15.0 | 22.0 | 0.00 | 0.00 | 0.00 | 35 | 1008.6 |
| 20260509165017 | 60 | 23 | 13.0 | 21.0 | 0.00 | 0.00 | 0.00 | 33 | 1008.5 |
| 20260509164017 | 59 | 23 | 14.0 | 21.0 | 0.00 | 0.00 | 0.00 | 35 | 1008.5 |
| 20260509163037 | 59 | 23 | 15.0 | 20.0 | 0.00 | 0.00 | 0.00 | 37 | 1008.6 |
| 20260509162017 | 59 | 0 | 13.0 | 18.0 | 0.00 | 0.00 | 0.00 | 36 | 1008.5 |
| 20260509161057 | 59 | 338 | 13.0 | 21.0 | 0.00 | 0.00 | 0.00 | 36 | 1008.5 |
| 20260509160017 | 59 | 23 | 12.0 | 18.0 | 0.00 | 0.00 | 0.00 | 38 | 1008.5 |
| 20260509155037 | 59 | 23 | 12.0 | 22.0 | 0.00 | 0.00 | 0.00 | 38 | 1008.5 |
| 20260509154017 | 58 | 0 | 11.0 | 18.0 | 0.00 | 0.00 | 0.00 | 41 | 1008.4 |
| 20260509153017 | 56 | 338 | 14.0 | 20.0 | 0.00 | 0.00 | 0.00 | 46 | 1008.2 |
| 20260509152037 | 57 | 23 | 10.0 | 16.0 | 0.00 | 0.00 | 0.00 | 46 | 1008.2 |
| 20260509151016 | 56 | 23 | 13.0 | 21.0 | 0.00 | 0.00 | 0.00 | 47 | 1008.1 |
| 20260509150037 | 57 | 0 | 12.0 | 17.0 | 0.00 | 0.00 | 0.00 | 50 | 1007.9 |
| 20260509145017 | 56 | 0 | 11.0 | 20.0 | 0.00 | 0.00 | 0.00 | 54 | 1007.6 |
| 20260509144016 | 55 | 0 | 13.0 | 20.0 | 0.00 | 0.00 | 0.00 | 54 | 1007.4 |
| 20260509143016 | 54 | 0 | 11.0 | 16.0 | 0.00 | 0.00 | 0.00 | 59 | 1007.4 |
| 20260509142017 | 54 | 0 | 14.0 | 19.0 | 0.00 | 0.00 | 0.00 | 60 | 1007.1 |
| 20260509141016 | 55 | 0 | 11.0 | 18.0 | 0.00 | 0.00 | 0.00 | 64 | 1007.1 |
| 20260509140016 | 54 | 0 | 13.0 | 17.0 | 0.00 | 0.00 | 0.00 | 64 | 1006.9 |
| 20260509135037 | 54 | 0 | 14.0 | 21.0 | 0.00 | 0.00 | 0.00 | 64 | 1006.7 |
| 20260509134017 | 55 | 0 | 11.0 | 17.0 | 0.00 | 0.00 | 0.00 | 65 | 1006.6 |
| 20260509133017 | 54 | 0 | 12.0 | 17.0 | 0.00 | 0.00 | 0.00 | 65 | 1006.4 |
| 20260509132016 | 54 | 0 | 16.0 | 23.0 | 0.00 | 0.00 | 0.00 | 67 | 1006.3 |
| 20260509131016 | 56 | 0 | 10.0 | 17.0 | 0.00 | 0.00 | 0.00 | 66 | 1006.0 |
| 20260509130057 | 54 | 0 | 14.0 | 20.0 | 0.00 | 0.00 | 0.00 | 70 | 1005.9 |
| 20260509125016 | 54 | 338 | 15.0 | 20.0 | 0.00 | 0.00 | 0.00 | 69 | 1005.6 |
| 20260509124016 | 54 | 338 | 12.0 | 21.0 | 0.00 | 0.00 | 0.00 | 69 | 1005.5 |
| 20260509123016 | 55 | 338 | 12.0 | 20.0 | 0.00 | 0.00 | 0.00 | 68 | 1005.4 |
| 20260509122036 | 55 | 315 | 13.0 | 19.0 | 0.00 | 0.00 | 0.00 | 68 | 1005.3 |
| 20260509121016 | 55 | 315 | 12.0 | 18.0 | 0.00 | 0.00 | 0.00 | 67 | 1005.2 |
| 20260509120016 | 54 | 315 | 8.0 | 13.0 | 0.00 | 0.00 | 0.00 | 67 | 1005.0 |
| 20260509115016 | 53 | 293 | 7.0 | 10.0 | 0.00 | 0.00 | 0.00 | 67 | 1004.9 |
| 20260509114016 | 52 | 293 | 3.0 | 7.0 | 0.00 | 0.00 | 0.00 | 67 | 1004.6 |
| 20260509113016 | 51 | 270 | 3.0 | 5.0 | 0.00 | 0.00 | 0.00 | 65 | 1004.6 |
| 20260509112016 | 50 | 293 | 5.0 | 8.0 | 0.00 | 0.00 | 0.00 | 66 | 1004.6 |
| 20260509111016 | 48 | 270 | 2.0 | 5.0 | 0.00 | 0.00 | 0.00 | 66 | 1004.3 |
| 20260509110016 | 48 | 270 | 1.0 | 2.0 | 0.00 | 0.00 | 0.00 | 64 | 1004.4 |
| 20260509105016 | 48 | 225 | 4.0 | 6.0 | 0.00 | 0.00 | 0.00 | 63 | 1004.3 |
| 20260509104016 | 48 | 248 | 4.0 | 6.0 | 0.00 | 0.00 | 0.00 | 64 | 1004.5 |
| 20260509103016 | 48 | 270 | 1.0 | 2.0 | 0.00 | 0.00 | 0.00 | 61 | 1004.2 |
| 20260509102016 | 49 | 315 | 1.0 | 2.0 | 0.00 | 0.00 | 0.00 | 59 | 1004.4 |
| 20260509101016 | 49 | 315 | 2.0 | 3.0 | 0.00 | 0.00 | 0.00 | 59 | 1004.3 |
| 20260509100016 | 49 | 338 | 1.0 | 2.0 | 0.00 | 0.00 | 0.00 | 58 | 1004.1 |
| 20260509095016 | 48 | 315 | 2.0 | 3.0 | 0.00 | 0.00 | 0.00 | 58 | 1004.3 |
| 20260509094016 | 48 | 315 | 2.0 | 3.0 | 0.00 | 0.00 | 0.00 | 58 | 1004.2 |
| 20260509093016 | 48 | 315 | 2.0 | 3.0 | 0.00 | 0.00 | 0.00 | 58 | 1003.9 |
| 20260509092016 | 48 | 338 | 2.0 | 3.0 | 0.00 | 0.00 | 0.00 | 59 | 1003.9 |
| 20260509091016 | 48 | 338 | 3.0 | 4.0 | 0.00 | 0.00 | 0.00 | 57 | 1003.9 |
| 20260509090016 | 47 | 338 | 4.0 | 6.0 | 0.00 | 0.00 | 0.00 | 61 | 1003.9 |
| 20260509085016 | 46 | 0 | 6.0 | 15.0 | 0.00 | 0.00 | 0.00 | 64 | 1003.4 |
| 20260509084016 | 43 | 0.0 | 0.0 | 0.00 | 0.00 | 0.00 | 72 | 1002.8 | |
| 20260509083036 | 42 | 0.0 | 0.0 | 0.00 | 0.00 | 0.00 | 73 | 1002.5 | |
| 20260509082016 | 42 | 0.0 | 0.0 | 0.00 | 0.00 | 0.00 | 69 | 1002.4 | |
| 20260509081016 | 42 | 0.0 | 0.0 | 0.00 | 0.00 | 0.00 | 67 | 1002.5 |